Location: Unspecified
(0.0000°N, 0.0000°E)
Time: 04:26:30
(UTC+02:00)

ISS - All Passes

Search period start: 27 May 2017 00:00
Search period end: 06 June 2017 00:00
Orbit: 402 x 408 km, 51.6° (Epoch: 27 May)

Date Brightness Start Highest point End Pass type
(mag) Time Alt. Az. Time Alt. Az. Time Alt. Az.
27 May - 07:32:15 10° WNW 07:35:15 34° SW 07:38:15 10° SSE visible
27 May - 19:06:03 10° SW 19:09:18 61° NW 19:12:33 10° NNE daylight
28 May - 06:40:03 10° NNW 06:43:17 74° NE 06:46:31 10° SE visible
28 May - 18:14:11 10° SSW 18:17:19 41° SE 18:20:27 10° NE daylight
29 May - 05:48:34 10° N 05:51:17 25° NE 05:54:01 10° ESE visible
29 May - 17:23:12 10° SSE 17:25:19 16° SE 17:27:25 10° E daylight
29 May - 18:59:35 10° W 19:01:36 15° NW 19:03:36 10° NNW daylight
30 May - 06:32:52 10° WNW 06:35:33 24° SW 06:38:15 10° S visible
30 May - 18:06:29 10° SW 18:09:35 39° NW 18:12:41 10° NNE daylight
31 May - 05:40:19 10° NW 05:43:32 71° SW 05:46:47 10° SSE night (unlit)
31 May - 17:14:18 10° SSW 17:17:34 64° SE 17:20:49 10° NE daylight
01 Jun - 04:48:30 10° NNW 04:51:31 36° NE 04:54:33 10° ESE night (unlit)
01 Jun - 16:22:53 10° S 16:25:31 22° SE 16:28:10 10° ENE daylight
01 Jun - 18:00:58 10° WNW 18:01:49 11° NW 18:02:40 10° NW daylight
02 Jun - 03:57:41 10° NNE 03:59:28 14° NE 04:01:15 10° E night (unlit)
02 Jun - 05:33:33 10° W 05:35:45 17° SW 05:37:57 10° SSW night (unlit)
02 Jun - 17:06:54 10° WSW 17:09:45 27° NW 17:12:35 10° N daylight
03 Jun - 04:40:33 10° NW 04:43:41 45° SW 04:46:50 10° SSE night (unlit)
03 Jun - 16:14:25 10° SW 16:17:41 82° NW 16:20:57 10° NNE daylight
04 Jun - 03:48:26 10° NNW 03:51:38 55° NE 03:54:49 10° SE night (unlit)
04 Jun - 15:22:39 10° S 15:25:37 32° SE 15:28:35 10° ENE daylight
05 Jun - 02:57:06 10° N 02:59:33 19° NE 03:01:59 10° ESE night (unlit)
05 Jun - 04:34:28 10° WSW 04:35:50 12° SW 04:37:12 10° SSW night (unlit)
05 Jun - 14:32:00 10° SSE 14:33:31 13° SE 14:35:01 10° E daylight
05 Jun - 16:07:22 10° WSW 16:09:48 19° NW 16:12:13 10° N daylight
